• In Germany
  • List of Countries
  • For 7 days
  • Water Temperature
  • Satellite Maps
  • Weather Map
  • Weather Widgets
  • user-avatar
    Login

    Hourly Weather Bobo-Dioulasso

    Today, 21 May, Monday

    Time Temperature Precipitation Wind Pressure Humidity
    00:00 +35°C° 0 mm 3 mps 721 mmHg 32%
    01:00 +35°C° 0 mm 3 mps 721 mmHg 36%
    02:00 +34°C° 0 mm 4 mps 721 mmHg 41%
    03:00 +33°C° 0 mm 4 mps 721 mmHg 45%
    04:00 +33°C° 0 mm 3 mps 721 mmHg 48%
    05:00 +31°C° 0 mm 2 mps 721 mmHg 51%
    06:00 +30°C° 0 mm 2 mps 722 mmHg 55%
    07:00 +31°C° 0 mm 2 mps 722 mmHg 52%
    08:00 +34°C° 0 mm 3 mps 723 mmHg 49%
    09:00 +35°C° 0 mm 3 mps 723 mmHg 46%
    10:00 +37°C° 0 mm 3 mps 723 mmHg 40%
    11:00 +39°C° 0 mm 3 mps 722 mmHg 34%
    12:00 +40°C° 0 mm 4 mps 722 mmHg 36%
    13:00 +40°C° 0 mm 3 mps 722 mmHg 32%
    14:00 +42°C° 0 mm 3 mps 721 mmHg 28%
    15:00 +42°C° 0 mm 2 mps 721 mmHg 24%
    16:00 +42°C° 0 mm 2 mps 720 mmHg 24%
    17:00 +41°C° 0 mm 1 mps 720 mmHg 25%
    18:00 +41°C° 0 mm 1 mps 720 mmHg 25%
    19:00 +39°C° 0 mm 1 mps 720 mmHg 27%
    20:00 +38°C° 0 mm 2 mps 720 mmHg 30%
    21:00 +37°C° 0 mm 2 mps 721 mmHg 32%
    22:00 +36°C° 0 mm 2 mps 721 mmHg 34%
    23:00 +36°C° 0 mm 2 mps 721 mmHg 35%

    Tomorrow, 22 May, Tuesday

    Time Temperature Precipitation Wind Pressure Humidity
    00:00 +35°C° 0 mm 2 mps 721 mmHg 37%
    01:00 +35°C° 0 mm 3 mps 721 mmHg 39%
    02:00 +34°C° 0 mm 3 mps 720 mmHg 42%
    03:00 +33°C° 0 mm 3 mps 720 mmHg 45%
    04:00 +33°C° 0 mm 4 mps 721 mmHg 48%
    05:00 +33°C° 0 mm 4 mps 721 mmHg 50%
    06:00 +32°C° 0 mm 4 mps 721 mmHg 53%
    07:00 +33°C° 0 mm 5 mps 722 mmHg 52%
    08:00 +34°C° 0 mm 5 mps 722 mmHg 51%
    09:00 +34°C° 0 mm 5 mps 722 mmHg 50%
    10:00 +36°C° 0 mm 4 mps 722 mmHg 44%
    11:00 +40°C° 0 mm 4 mps 722 mmHg 38%
    12:00 +42°C° 0 mm 3 mps 721 mmHg 32%
    13:00 +43°C° 0 mm 3 mps 721 mmHg 29%
    14:00 +43°C° 0 mm 2 mps 720 mmHg 25%
    15:00 +45°C° 0 mm 1 mps 720 mmHg 22%
    16:00 +43°C° 0 mm 1 mps 720 mmHg 24%
    17:00 +41°C° 0 mm 1 mps 720 mmHg 27%
    18:00 +40°C° 0 mm 2 mps 720 mmHg 30%
    19:00 +38°C° 0.3 mm 2 mps 720 mmHg 34%
    20:00 +37°C° 0.3 mm 2 mps 720 mmHg 38%
    21:00 +36°C° 0.3 mm 2 mps 720 mmHg 43%
    22:00 +35°C° 0 mm 3 mps 721 mmHg 47%
    23:00 +34°C° 0 mm 5 mps 721 mmHg 50%

    Day after tomorrow, 23 May, Wednesday

    Time Temperature Precipitation Wind Pressure Humidity
    00:00 +33°C° 0 mm 6 mps 721 mmHg 54%
    01:00 +33°C° 0 mm 6 mps 722 mmHg 57%
    02:00 +32°C° 0 mm 7 mps 722 mmHg 59%
    03:00 +32°C° 0 mm 7 mps 722 mmHg 62%
    04:00 +30°C° 0 mm 6 mps 722 mmHg 65%
    05:00 +29°C° 0 mm 6 mps 722 mmHg 68%
    06:00 +29°C° 0 mm 5 mps 722 mmHg 72%
    07:00 +29°C° 0 mm 5 mps 723 mmHg 68%
    08:00 +30°C° 0 mm 4 mps 723 mmHg 64%
    09:00 +32°C° 0 mm 4 mps 724 mmHg 60%
    10:00 +34°C° 0 mm 4 mps 724 mmHg 54%
    11:00 +35°C° 0 mm 4 mps 724 mmHg 49%
    12:00 +37°C° 0 mm 3 mps 724 mmHg 43%
    13:00 +37°C° 0 mm 3 mps 723 mmHg 41%
    14:00 +38°C° 0 mm 3 mps 722 mmHg 39%
    15:00 +38°C° 0 mm 3 mps 721 mmHg 38%
    16:00 +38°C° 0 mm 3 mps 721 mmHg 38%
    17:00 +38°C° 0 mm 2 mps 721 mmHg 38%
    18:00 +38°C° 0 mm 2 mps 721 mmHg 38%
    19:00 +36°C° 0.3 mm 2 mps 722 mmHg 42%
    20:00 +35°C° 0.3 mm 2 mps 722 mmHg 46%
    21:00 +34°C° 0.3 mm 2 mps 723 mmHg 50%
    22:00 +34°C° 0 mm 2 mps 723 mmHg 51%
    23:00 +32°C° 0 mm 2 mps 723 mmHg 52%

    24 May, Thursday

    Time Temperature Precipitation Wind Pressure Humidity
    00:00 +32°C° 0 mm 2 mps 723 mmHg 53%
    01:00 +31°C° 0.1 mm 2 mps 723 mmHg 55%
    02:00 +31°C° 0.1 mm 2 mps 723 mmHg 58%
    03:00 +30°C° 0.1 mm 3 mps 722 mmHg 60%
    04:00 +30°C° 0 mm 3 mps 722 mmHg 63%
    05:00 +29°C° 0 mm 3 mps 723 mmHg 65%
    06:00 +29°C° 0 mm 3 mps 723 mmHg 67%
    07:00 +30°C° 0 mm 3 mps 723 mmHg 62%
    08:00 +31°C° 0 mm 3 mps 723 mmHg 57%
    09:00 +34°C° 0 mm 3 mps 724 mmHg 51%
    10:00 +36°C° 0 mm 3 mps 723 mmHg 44%
    11:00 +38°C° 0 mm 3 mps 723 mmHg 36%
    12:00 +40°C° 0 mm 3 mps 723 mmHg 28%
    13:00 +42°C° 0 mm 3 mps 722 mmHg 26%
    14:00 +43°C° 0 mm 3 mps 721 mmHg 23%
    15:00 +44°C° 0 mm 3 mps 720 mmHg 21%
    16:00 +42°C° 0 mm 2 mps 720 mmHg 22%
    17:00 +41°C° 0 mm 2 mps 720 mmHg 23%
    18:00 +40°C° 0 mm 2 mps 720 mmHg 24%
    19:00 +39°C° 0 mm 2 mps 721 mmHg 27%
    20:00 +38°C° 0 mm 2 mps 722 mmHg 30%
    21:00 +36°C° 0 mm 2 mps 722 mmHg 33%
    22:00 +36°C° 0 mm 2 mps 722 mmHg 35%
    23:00 +35°C° 0 mm 3 mps 722 mmHg 37%

    25 May, Friday

    Time Temperature Precipitation Wind Pressure Humidity
    00:00 +35°C° 0 mm 3 mps 722 mmHg 39%
    01:00 +34°C° 0 mm 4 mps 722 mmHg 43%
    02:00 +33°C° 0 mm 4 mps 721 mmHg 48%
    03:00 +32°C° 0 mm 5 mps 721 mmHg 52%
    04:00 +32°C° 0.1 mm 4 mps 721 mmHg 57%
    05:00 +30°C° 0.1 mm 4 mps 722 mmHg 61%
    06:00 +29°C° 0.1 mm 3 mps 722 mmHg 65%
    07:00 +30°C° 0.2 mm 3 mps 722 mmHg 62%
    08:00 +31°C° 0.2 mm 3 mps 723 mmHg 58%
    09:00 +34°C° 0.2 mm 3 mps 723 mmHg 54%
    10:00 +36°C° 0 mm 3 mps 723 mmHg 46%
    11:00 +38°C° 0 mm 3 mps 722 mmHg 38%
    12:00 +42°C° 0 mm 3 mps 722 mmHg 30%
    13:00 +43°C° 0 mm 3 mps 721 mmHg 27%
    14:00 +43°C° 0 mm 2 mps 720 mmHg 24%
    15:00 +44°C° 0 mm 1 mps 720 mmHg 21%
    16:00 +43°C° 0 mm 1 mps 719 mmHg 23%
    17:00 +42°C° 0 mm 1 mps 719 mmHg 24%
    18:00 +40°C° 0 mm 1 mps 719 mmHg 26%
    19:00 +39°C° 0.1 mm 2 mps 720 mmHg 29%
    20:00 +38°C° 0.1 mm 2 mps 720 mmHg 32%
    21:00 +37°C° 0.1 mm 3 mps 721 mmHg 35%
    22:00 +36°C° 0.8 mm 3 mps 720 mmHg 42%
    23:00 +34°C° 0.8 mm 4 mps 720 mmHg 48%

    26 May, Saturday

    Time Temperature Precipitation Wind Pressure Humidity
    00:00 +33°C° 0.8 mm 4 mps 720 mmHg 54%
    01:00 +32°C° 0 mm 4 mps 720 mmHg 57%
    02:00 +32°C° 0 mm 4 mps 720 mmHg 60%
    03:00 +30°C° 0 mm 4 mps 720 mmHg 63%
    04:00 +30°C° 0 mm 5 mps 720 mmHg 65%
    05:00 +29°C° 0 mm 5 mps 720 mmHg 66%
    06:00 +29°C° 0 mm 5 mps 721 mmHg 68%
    07:00 +30°C° 0 mm 5 mps 721 mmHg 65%
    08:00 +32°C° 0 mm 5 mps 722 mmHg 62%
    09:00 +33°C° 0 mm 5 mps 722 mmHg 59%
    10:00 +34°C° 0 mm 5 mps 722 mmHg 54%
    11:00 +36°C° 0 mm 5 mps 722 mmHg 48%
    12:00 +38°C° 0 mm 4 mps 721 mmHg 43%
    13:00 +40°C° 0 mm 4 mps 721 mmHg 40%
    14:00 +40°C° 0 mm 4 mps 720 mmHg 37%
    15:00 +41°C° 0 mm 4 mps 719 mmHg 34%
    16:00 +40°C° 0 mm 3 mps 719 mmHg 35%
    17:00 +39°C° 0 mm 3 mps 719 mmHg 36%
    18:00 +39°C° 0 mm 3 mps 720 mmHg 36%
    19:00 +37°C° 0.3 mm 3 mps 720 mmHg 41%
    20:00 +36°C° 0.3 mm 3 mps 720 mmHg 46%
    21:00 +35°C° 0.3 mm 3 mps 721 mmHg 51%
    22:00 +34°C° 0.1 mm 4 mps 721 mmHg 53%
    23:00 +33°C° 0.1 mm 4 mps 721 mmHg 55%
    Show more